Hourly Data Report for October 01, 2014

All times are specified in Local Standard Time (LST). Add 1 hour to adjust for Daylight Saving Time where and when it is observed.

GJOA HAVEN A
NUNAVUT

68°38'08.000" N
95°51'01.000" W
46.90 m
2302337
71597
YHK

Download Data

Hourly Data (October 2014)
Hourly Data Report for October 1, 2014
Temp Definition
°C
Dew Point Temp Definition
°C
Rel Hum Definition
%
Wind Dir Definition
10's deg

Wind Spd Definition
km/h
Visibility Definition
km
Stn Press Definition
kPa
Hmdx Definition


Wind Chill Definition


Weather Definition


TIME
00:00 Legend Double Dagger -8.0 -9.0 93 35 26 16.1 101.64   -16 LegendNANA
01:00 Legend Double Dagger -8.7 -9.5 94 33 28 16.1 101.64   -18 LegendNANA
02:00 Legend Double Dagger -8.6 -9.5 93 32 22 16.1 101.66   -16 LegendNANA
03:00 Legend Double Dagger -8.5 -9.3 94 32 18 16.1 101.65   -16 LegendNANA
04:00 Legend Double Dagger -8.6 -9.4 94 33 30 16.1 101.62   -18 LegendNANA
05:00 Legend Double Dagger -9.5 -10.2 95 30 18 16.1 101.62   -17 LegendNANA
06:00 Legend Double Dagger -9.3 -10.0 95 33 30 16.1 101.53   -19 Snow
07:00 Legend Double Dagger -9.3 -10.1 94 34 26 16.1 101.50   -18 LegendNANA
08:00 Legend Double Dagger -9.2 -10.1 93 34 34 12.9 101.47   -19 LegendNANA
09:00 Legend Double Dagger -8.7 -9.6 93 33 32 16.1 101.44   -18 LegendNANA
10:00 Legend Double Dagger -8.2 -9.3 92 33 28 16.1 101.41   -17 LegendNANA
11:00 Legend Double Dagger -7.6 -9.4 87 32 26 16.1 101.41   -16 LegendNANA
12:00 Legend Double Dagger -7.4 -9.1 88 34 28 16.1 101.39   -16 LegendNANA
13:00 Legend Double Dagger -7.1 -8.8 88 36 26 16.1 101.38   -15 LegendNANA
14:00 Legend Double Dagger -7.3 -8.2 93 36 30 16.1 101.34   -16 LegendNANA
15:00 Legend Double Dagger -7.4 -8.3 93 35 24 16.1 101.34   -15 LegendNANA
16:00 Legend Double Dagger -7.4 -8.3 93 36 24 16.1 101.32   -15 LegendNANA
17:00 Legend Double Dagger -8.3 -9.0 95 1 32 16.1 101.29   -18 LegendNANA
18:00 Legend Double Dagger -8.9 -10.1 91 2 28 16.1 101.32   -18 LegendNANA
19:00 Legend Double Dagger -8.6 -10.0 90 2 26 16.1 101.32   -17 LegendNANA
20:00 Legend Double Dagger -8.4 -9.5 92 3 24 16.1 101.32   -17 LegendNANA
21:00 Legend Double Dagger -8.5 -9.7 91 3 22 16.1 101.32   -16 LegendNANA
22:00 Legend Double Dagger -8.5 -9.3 94 3 17 16.1 101.33   -15 LegendNANA
23:00 Legend Double Dagger -8.8 -9.9 92 2 21 16.1 101.30   -17 LegendNANA

Notes on Data Quality.

Legend

  • E = Estimated
  • M = Missing
  • NA = Not Available
  • ‡ = Partner data that is not subject to review by the National Climate Archives
Date modified: